Location: ?ern� Novina
(50.6762°N, 14.8696°E)
Time: 13:53:36
(UTC+00:00)

Lacrosse 4 Rocket - Pass Details

Date: 03 March 2021
Orbit: 537 x 620 km, 68.0° (Epoch: 11 April)

Event Time Altitude Azimuth Distance (km) Brightness Sun altitude
Rises 19:11:30 0° 203° (SSW) 2,827 5.0 -23.6°
Reaches altitude 10° 19:13:44 10° 200° (SSW) 1,941 4.1 -23.9°
Enters shadow 19:14:33 15° 198° (SSW) 1,623 3.7 -24.1°
